Weather in Onokhino

Russia / Tyumen Oblast     56°55′23″N   65°32′26″E
temp.,
°C
wind,
m/s
gust,
m/s
humid.,
%
clouds,
%
prec.,
mm/h
press.,
hPa
HPBL,
m
8 may, sat
sat823:00+13ssw35525 0.0 101972
02:00+11sw25586 0.0 101991
05:00+10sw22606 0.0 101941
08:00+16sw234139 0.0 1019290
11:00+21ssw232779 0.0 10181976
14:00+23ssw2324100 0.0 10172736
17:00+23sse222455 0.0 10162898
20:00+18ssw2236100 0.0 101639
9 may, sun
sun923:00+15w1140100 0.0 101612
02:00+14nne1144100 0.0 101610
05:00+13nne1148100 0.0 101611
08:00+16ese2438100 0.0 1017229
11:00+22e3525100 0.0 10171983
14:00+23e4623100 0.0 10173298
17:00+22se2529100 0.0 1017639
20:00+18ne2347100 0.1 101876
10 may, mon
mon1023:00+15e235740 0.1 102067
02:00+13ene395999 0.0 1021301
05:00+11ene3861100 0.0 1023220
08:00+14ene474287 0.0 1023571
11:00+17ene4530100 0.0 10241364
14:00+20ene3425100 0.0 10231831
17:00+21ene34255 0.0 10231943
20:00+17ene113569 0.0 102315
11 may, tue
tue1123:00+13wsw00420 0.0 102410
02:00+11wsw12500 0.0 102410
05:00+10w225624 0.0 102426
08:00+15w1242100 0.0 1023227
11:00+20w2329100 0.0 10231227
14:00+20wnw5532100 0.0 10221599
17:00+14w2476100 0.4 1023315
20:00+13nnw498178 0.4 1023687
12 may, wed
wed1223:00+9nnw411845 0.4 1024657
02:00+8nnw498596 0.0 1024672
05:00+6nnw498598 0.0 1025707
08:00+9nnw610635 0.0 1025778
11:00+14n69373 0.0 10251377
14:00+18n5826100 0.0 10252006
17:00+17n5727100 0.0 10252067
20:00+14n383696 0.0 1026455